Search for airport 
image banner adimage banner ad
image banner ad

DAOV - Ghriss

Located in Ghriss, Algeria

ICAO - DAOV, IATA - MUW

Data provided by Airmate  

General information

Coordinates: N35°13'1" E0°8'54"
Elevation is 1686 feet MSL.
 
View others Airports in Mascara Province

Operational data

Open for public use
Current time UTC:
Current local time:
Weather
METAR: DAOV 290100Z 01002KT CAVOK 17/03 Q1017
TAF: TAF DAOV 282300Z 2900/2909 VRB02KT CAVOK
View NOTAMs / SUP AIP / TFR affecting this airport [VIEW]
Communications frequencies: [VIEW]

Runways:

RWY identifierQFULength (ft)Width (ft)SurfaceLDA (ft)
0882°557798ASP
26262°557798

Airport contact information

Address: Ghriss Algeria

Satellite view of DAOV